DLH5TY LIEO-EDDF

Flight info

Callsign DLH5TY
Flight time 1h 34m
Altitude 38000
Route OKIVA P980 DIKEL DCT RATAP DCT MEGER DCT ERTEV DCT ABESI DCT LADOL T163 EMPAX EMPAX5B
Aircraft A321/M-SDE3FGHIRWY/LB1

Departure

Time 2026-05-06 16:31
Airport Olbia Costa Smeralda Airport (LIEO)

Arrival

Time 2026-05-06 18:06
Airport Frankfurt Main Airport (EDDF)
Time Latitude Longitude Altitude Speed Heading
2026-05-06 15:59 40.90245 9.51664 34 ft 0 kts 324°
2026-05-06 16:20 40.90237 9.51671 34 ft 3 kts 321°
2026-05-06 16:20 40.90222 9.51690 32 ft 3 kts 306°
2026-05-06 16:21 40.90212 9.51714 33 ft 3 kts 282°
2026-05-06 16:21 40.90211 9.51739 33 ft 3 kts 245°
2026-05-06 16:21 40.90214 9.51747 34 ft 0 kts 235°
2026-05-06 16:25 40.90211 9.51740 34 ft 2 kts 235°
2026-05-06 16:26 40.90198 9.51716 33 ft 4 kts 235°
2026-05-06 16:26 40.90176 9.51674 34 ft 7 kts 235°
2026-05-06 16:26 40.90145 9.51615 34 ft 9 kts 235°
2026-05-06 16:26 40.90105 9.51539 34 ft 11 kts 235°
2026-05-06 16:27 40.90070 9.51481 34 ft 8 kts 211°
2026-05-06 16:27 40.90018 9.51507 34 ft 9 kts 148°
2026-05-06 16:27 40.89950 9.51503 34 ft 11 kts 202°
2026-05-06 16:27 40.89893 9.51423 34 ft 13 kts 234°
2026-05-06 16:28 40.89837 9.51316 34 ft 15 kts 235°
2026-05-06 16:28 40.89773 9.51193 34 ft 17 kts 235°
2026-05-06 16:28 40.89701 9.51056 34 ft 19 kts 235°
2026-05-06 16:28 40.89621 9.50904 34 ft 21 kts 235°
2026-05-06 16:29 40.89534 9.50740 34 ft 23 kts 235°
2026-05-06 16:29 40.89441 9.50562 34 ft 24 kts 235°
2026-05-06 16:29 40.89380 9.50457 34 ft 12 kts 213°
2026-05-06 16:29 40.89295 9.50461 34 ft 14 kts 138°
2026-05-06 16:30 40.89268 9.50576 35 ft 8 kts 102°
2026-05-06 16:30 40.89269 9.50622 35 ft 8 kts 69°
2026-05-06 16:30 40.89324 9.50727 34 ft 15 kts 55°
2026-05-06 16:30 40.89475 9.51014 34 ft 76 kts 55°
2026-05-06 16:31 40.89931 9.51878 34 ft 150 kts 54°
2026-05-06 16:31 40.90582 9.53084 589 ft 163 kts 55°
2026-05-06 16:31 40.91226 9.54341 1357 ft 167 kts 56°
2026-05-06 16:31 40.91900 9.55613 2063 ft 169 kts 57°
2026-05-06 16:32 40.92573 9.56885 2790 ft 168 kts 55°
2026-05-06 16:32 40.93256 9.58179 3420 ft 174 kts 55°
2026-05-06 16:32 40.93996 9.59572 3788 ft 196 kts 55°
2026-05-06 16:32 40.94824 9.61129 4145 ft 218 kts 55°
2026-05-06 16:33 40.95745 9.62860 4447 ft 243 kts 55°
2026-05-06 16:33 40.96761 9.64732 5083 ft 255 kts 50°
2026-05-06 16:33 40.98186 9.66139 5851 ft 261 kts 19°
2026-05-06 16:34 41.01711 9.65341 7039 ft 278 kts 322°
2026-05-06 16:34 41.03307 9.63864 7838 ft 282 kts 322°
2026-05-06 16:34 41.04930 9.62372 8704 ft 285 kts 322°
2026-05-06 16:34 41.06574 9.60877 9576 ft 288 kts 322°
2026-05-06 16:35 41.08135 9.59221 10363 ft 289 kts 311°
2026-05-06 16:35 41.09441 9.57102 10719 ft 308 kts 303°
2026-05-06 16:35 41.10737 9.54714 10973 ft 329 kts 303°
2026-05-06 16:35 41.12092 9.52209 11511 ft 338 kts 303°
2026-05-06 16:36 41.13475 9.49657 12202 ft 343 kts 303°
2026-05-06 16:36 41.14881 9.47072 12919 ft 347 kts 303°
2026-05-06 16:36 41.16301 9.44465 13697 ft 349 kts 302°
2026-05-06 16:36 41.17726 9.41854 14405 ft 351 kts 302°
2026-05-06 16:37 41.19169 9.39207 15022 ft 355 kts 301°
2026-05-06 16:37 41.20764 9.36671 15610 ft 366 kts 314°
2026-05-06 16:37 41.22962 9.34833 16182 ft 382 kts 334°
2026-05-06 16:37 41.25569 9.34106 16754 ft 395 kts 353°
2026-05-06 16:38 41.28329 9.33925 17338 ft 401 kts 354°
2026-05-06 16:38 41.31143 9.33775 17910 ft 407 kts 354°
2026-05-06 16:38 41.33984 9.33635 18439 ft 412 kts 354°
2026-05-06 16:38 41.36862 9.33493 18965 ft 417 kts 354°
2026-05-06 16:39 41.39770 9.33344 19536 ft 420 kts 354°
2026-05-06 16:39 41.42699 9.33189 20125 ft 422 kts 353°
2026-05-06 16:39 41.45642 9.33024 20679 ft 424 kts 353°
2026-05-06 16:39 41.48596 9.32853 21224 ft 428 kts 353°
2026-05-06 16:40 41.51585 9.32680 21749 ft 431 kts 353°
2026-05-06 16:40 41.54598 9.32507 22271 ft 434 kts 352°
2026-05-06 16:40 41.57623 9.32334 22774 ft 438 kts 352°
2026-05-06 16:40 41.60683 9.32159 23274 ft 441 kts 352°
2026-05-06 16:41 41.63802 9.31980 23702 ft 446 kts 352°
2026-05-06 16:41 41.66922 9.31800 24109 ft 450 kts 352°
2026-05-06 16:41 41.70022 9.31620 24545 ft 453 kts 352°
2026-05-06 16:41 41.73212 9.31438 25000 ft 455 kts 352°
2026-05-06 16:42 41.76388 9.31260 25479 ft 457 kts 352°
2026-05-06 16:42 41.79575 9.31080 25936 ft 459 kts 352°
2026-05-06 16:42 41.82769 9.30898 26360 ft 461 kts 352°
2026-05-06 16:42 41.85993 9.30715 26746 ft 465 kts 352°
2026-05-06 16:43 41.89229 9.30532 27122 ft 468 kts 352°
2026-05-06 16:43 41.92496 9.30348 27563 ft 470 kts 352°
2026-05-06 16:43 41.95777 9.30162 27963 ft 472 kts 352°
2026-05-06 16:43 41.99062 9.29970 28336 ft 475 kts 352°
2026-05-06 16:44 42.02376 9.29778 28744 ft 477 kts 352°
2026-05-06 16:44 42.05696 9.29589 29129 ft 480 kts 352°
2026-05-06 16:44 42.09048 9.29395 29505 ft 483 kts 352°
2026-05-06 16:44 42.12420 9.29198 29900 ft 485 kts 352°
2026-05-06 16:45 42.15795 9.29003 30212 ft 488 kts 352°
2026-05-06 16:45 42.19199 9.28804 30494 ft 490 kts 352°
2026-05-06 16:45 42.22618 9.28601 30779 ft 492 kts 352°
2026-05-06 16:45 42.26046 9.28395 31057 ft 497 kts 352°
2026-05-06 16:46 42.29512 9.28192 31335 ft 499 kts 352°
2026-05-06 16:46 42.32982 9.27997 31722 ft 498 kts 352°
2026-05-06 16:46 42.36438 9.27804 32148 ft 498 kts 352°
2026-05-06 16:46 42.39904 9.27610 32520 ft 498 kts 352°
2026-05-06 16:47 42.43354 9.27414 32910 ft 497 kts 352°
2026-05-06 16:47 42.46810 9.27214 33289 ft 496 kts 352°
2026-05-06 16:47 42.50265 9.27014 33642 ft 496 kts 352°
2026-05-06 16:47 42.53706 9.26812 34027 ft 496 kts 352°
2026-05-06 16:48 42.57151 9.26607 34372 ft 494 kts 352°
2026-05-06 16:48 42.60584 9.26402 34725 ft 492 kts 351°
2026-05-06 16:48 42.64040 9.26201 35049 ft 491 kts 352°
2026-05-06 16:48 42.67411 9.26007 35384 ft 490 kts 351°
2026-05-06 16:49 42.70863 9.25804 35727 ft 489 kts 351°
2026-05-06 16:49 42.74249 9.25600 36067 ft 487 kts 351°
2026-05-06 16:49 42.77641 9.25395 36410 ft 486 kts 351°
2026-05-06 16:49 42.80998 9.25195 36734 ft 484 kts 351°
2026-05-06 16:50 42.84367 9.24999 37054 ft 483 kts 351°
2026-05-06 16:50 42.87722 9.24806 37378 ft 481 kts 351°
2026-05-06 16:50 42.91066 9.24612 37659 ft 480 kts 351°
2026-05-06 16:50 42.93281 9.24483 37840 ft 480 kts 351°
2026-05-06 16:51 42.97738 9.24218 37924 ft 479 kts 351°
2026-05-06 16:51 43.04376 9.23816 37921 ft 478 kts 351°
2026-05-06 16:52 43.11015 9.23416 37915 ft 478 kts 351°
2026-05-06 16:52 43.17665 9.23016 37909 ft 478 kts 351°
2026-05-06 16:53 43.24306 9.22625 37909 ft 478 kts 351°
2026-05-06 16:53 43.30950 9.22232 37930 ft 478 kts 351°
2026-05-06 16:54 43.37598 9.21831 37922 ft 479 kts 351°
2026-05-06 16:54 43.44255 9.21438 37918 ft 479 kts 351°
2026-05-06 16:55 43.50923 9.21034 37934 ft 479 kts 351°
2026-05-06 16:55 43.57585 9.20618 37915 ft 480 kts 351°
2026-05-06 16:56 43.63177 9.20275 37907 ft 480 kts 351°
2026-05-06 16:56 43.69847 9.19871 37909 ft 480 kts 351°
2026-05-06 16:57 43.76518 9.19474 37915 ft 480 kts 351°
2026-05-06 16:57 43.83188 9.19070 37907 ft 480 kts 351°
2026-05-06 16:58 43.89867 9.18660 37912 ft 480 kts 352°
2026-05-06 16:58 43.96528 9.18256 37913 ft 479 kts 352°
2026-05-06 16:59 44.03184 9.17856 37901 ft 479 kts 352°
2026-05-06 16:59 44.09832 9.17438 37906 ft 478 kts 352°
2026-05-06 17:00 44.16492 9.17020 37900 ft 478 kts 352°
2026-05-06 17:00 44.23172 9.16607 37897 ft 477 kts 352°
2026-05-06 17:01 44.29761 9.16197 37916 ft 478 kts 352°
2026-05-06 17:01 44.36400 9.15784 37902 ft 478 kts 352°
2026-05-06 17:02 44.43086 9.15370 37909 ft 478 kts 352°
2026-05-06 17:02 44.49729 9.14958 37892 ft 478 kts 352°
2026-05-06 17:03 44.56375 9.14545 37876 ft 478 kts 352°
2026-05-06 17:03 44.63033 9.14128 37893 ft 478 kts 352°
2026-05-06 17:04 44.69676 9.13711 37830 ft 478 kts 352°
2026-05-06 17:04 44.76315 9.13294 37813 ft 478 kts 352°
2026-05-06 17:05 44.82974 9.12870 37857 ft 479 kts 352°
2026-05-06 17:05 44.89631 9.12444 37833 ft 479 kts 352°
2026-05-06 17:06 44.96298 9.12028 37824 ft 480 kts 352°
2026-05-06 17:06 45.02969 9.11602 37833 ft 480 kts 352°
2026-05-06 17:07 45.09639 9.11178 37830 ft 480 kts 352°
2026-05-06 17:07 45.16318 9.10749 37814 ft 480 kts 352°
2026-05-06 17:08 45.22990 9.10323 37838 ft 480 kts 352°
2026-05-06 17:08 45.29677 9.09899 37846 ft 480 kts 352°
2026-05-06 17:09 45.36348 9.09470 37849 ft 480 kts 352°
2026-05-06 17:09 45.43069 9.09037 37881 ft 481 kts 352°
2026-05-06 17:10 45.49753 9.08613 37864 ft 481 kts 352°
2026-05-06 17:10 45.56447 9.08177 37854 ft 481 kts 352°
2026-05-06 17:11 45.63140 9.07734 37873 ft 482 kts 352°
2026-05-06 17:11 45.69847 9.07296 37878 ft 482 kts 352°
2026-05-06 17:12 45.76409 9.06862 37879 ft 481 kts 352°
2026-05-06 17:12 45.83103 9.06433 37905 ft 481 kts 353°
2026-05-06 17:13 45.89776 9.06004 37900 ft 480 kts 353°
2026-05-06 17:13 45.96462 9.05560 37884 ft 481 kts 353°
2026-05-06 17:14 46.03140 9.05122 37902 ft 480 kts 353°
2026-05-06 17:14 46.09806 9.04681 37897 ft 479 kts 353°
2026-05-06 17:15 46.16473 9.04234 37915 ft 479 kts 353°
2026-05-06 17:15 46.23140 9.03890 37923 ft 480 kts 354°
2026-05-06 17:16 46.29812 9.03645 37925 ft 479 kts 354°
2026-05-06 17:16 46.36472 9.03389 37925 ft 478 kts 354°
2026-05-06 17:17 46.43131 9.03101 37929 ft 478 kts 354°
2026-05-06 17:17 46.49774 9.02810 37929 ft 478 kts 354°
2026-05-06 17:18 46.56466 9.02521 37925 ft 478 kts 354°
2026-05-06 17:18 46.63118 9.02230 37923 ft 478 kts 354°
2026-05-06 17:19 46.69755 9.01946 37934 ft 477 kts 354°
2026-05-06 17:19 46.76389 9.01654 37934 ft 477 kts 354°
2026-05-06 17:20 46.83024 9.01363 37936 ft 476 kts 355°
2026-05-06 17:20 46.89643 9.01070 37961 ft 476 kts 355°
2026-05-06 17:21 46.96247 9.00772 37933 ft 474 kts 355°
2026-05-06 17:21 47.02839 9.00483 37928 ft 474 kts 355°
2026-05-06 17:22 47.09452 9.00189 37944 ft 476 kts 355°
2026-05-06 17:22 47.16071 8.99897 37929 ft 476 kts 355°
2026-05-06 17:23 47.22694 8.99601 37935 ft 477 kts 355°
2026-05-06 17:23 47.29329 8.99303 37921 ft 478 kts 355°
2026-05-06 17:24 47.35986 8.99008 37922 ft 479 kts 355°
2026-05-06 17:24 47.42704 8.98703 37922 ft 480 kts 355°
2026-05-06 17:25 47.49384 8.98402 37928 ft 480 kts 355°
2026-05-06 17:25 47.56057 8.98104 37925 ft 480 kts 355°
2026-05-06 17:26 47.62715 8.97799 37919 ft 480 kts 355°
2026-05-06 17:26 47.69375 8.97499 37926 ft 479 kts 355°
2026-05-06 17:27 47.76021 8.97201 37911 ft 478 kts 355°
2026-05-06 17:27 47.82675 8.96909 37911 ft 477 kts 355°
2026-05-06 17:28 47.89308 8.96618 37908 ft 477 kts 355°
2026-05-06 17:28 47.95927 8.96308 37912 ft 476 kts 355°
2026-05-06 17:29 48.02550 8.95986 37900 ft 475 kts 355°
2026-05-06 17:29 48.08084 8.95727 37904 ft 474 kts 355°
2026-05-06 17:29 48.11388 8.95576 37776 ft 473 kts 355°
2026-05-06 17:30 48.14670 8.95425 37131 ft 473 kts 355°
2026-05-06 17:30 48.17967 8.95516 36435 ft 476 kts
2026-05-06 17:30 48.21269 8.96015 35726 ft 478 kts
2026-05-06 17:30 48.24583 8.96521 35009 ft 480 kts
2026-05-06 17:31 48.27916 8.97030 34295 ft 482 kts
2026-05-06 17:31 48.31161 8.97525 33561 ft 484 kts
2026-05-06 17:31 48.34503 8.98029 32747 ft 484 kts
2026-05-06 17:31 48.37867 8.98534 32010 ft 483 kts
2026-05-06 17:32 48.41208 8.99040 31289 ft 481 kts
2026-05-06 17:32 48.44519 8.99544 30779 ft 475 kts
2026-05-06 17:32 48.47832 9.00053 30198 ft 471 kts
2026-05-06 17:32 48.51031 9.00545 29594 ft 467 kts
2026-05-06 17:33 48.54277 9.01046 29019 ft 460 kts
2026-05-06 17:33 48.57447 9.01533 28448 ft 454 kts
2026-05-06 17:33 48.60477 9.01995 27915 ft 447 kts
2026-05-06 17:33 48.63545 9.02471 27374 ft 441 kts
2026-05-06 17:34 48.66568 9.03059 26836 ft 435 kts
2026-05-06 17:34 48.69538 9.03754 26313 ft 429 kts
2026-05-06 17:34 48.72464 9.04506 25789 ft 424 kts 10°
2026-05-06 17:34 48.75317 9.05255 25294 ft 418 kts 10°
2026-05-06 17:35 48.78118 9.05980 24815 ft 413 kts 10°
2026-05-06 17:35 48.80891 9.06676 24341 ft 409 kts 10°
2026-05-06 17:35 48.83735 9.07368 23875 ft 405 kts
2026-05-06 17:36 48.89222 9.08648 22945 ft 394 kts
2026-05-06 17:36 48.91837 9.09111 22524 ft 388 kts
2026-05-06 17:36 48.94500 9.09484 22092 ft 382 kts
2026-05-06 17:36 48.97134 9.09808 21660 ft 376 kts
2026-05-06 17:37 48.99730 9.10120 21214 ft 371 kts
2026-05-06 17:37 49.02290 9.10444 20781 ft 371 kts
2026-05-06 17:37 49.04885 9.10790 20319 ft 377 kts
2026-05-06 17:37 49.07526 9.11159 19852 ft 384 kts
2026-05-06 17:38 49.10180 9.11536 19353 ft 385 kts
2026-05-06 17:38 49.12874 9.11922 18858 ft 383 kts
2026-05-06 17:38 49.15495 9.12301 18350 ft 380 kts
2026-05-06 17:38 49.18102 9.12681 17815 ft 376 kts
2026-05-06 17:39 49.20727 9.13062 17296 ft 373 kts
2026-05-06 17:39 49.23304 9.13434 16794 ft 369 kts
2026-05-06 17:39 49.25825 9.13794 16304 ft 367 kts
2026-05-06 17:39 49.28389 9.14202 15803 ft 365 kts
2026-05-06 17:40 49.30859 9.15029 15303 ft 361 kts 12°
2026-05-06 17:40 49.33303 9.15901 14815 ft 360 kts 12°
2026-05-06 17:40 49.35728 9.16763 14317 ft 357 kts 13°
2026-05-06 17:40 49.38129 9.17615 13831 ft 353 kts 12°
2026-05-06 17:41 49.40518 9.18461 13317 ft 351 kts 11°
2026-05-06 17:41 49.42887 9.19302 12821 ft 347 kts 12°
2026-05-06 17:41 49.45228 9.20129 12351 ft 344 kts 12°
2026-05-06 17:41 49.47557 9.20955 11858 ft 343 kts 11°
2026-05-06 17:42 49.49867 9.21780 11409 ft 340 kts 12°
2026-05-06 17:42 49.52163 9.22600 10937 ft 337 kts 12°
2026-05-06 17:42 49.54436 9.23408 10640 ft 335 kts 11°
2026-05-06 17:42 49.56715 9.24217 10578 ft 336 kts 11°
2026-05-06 17:43 49.58990 9.25023 10456 ft 336 kts 11°
2026-05-06 17:43 49.61273 9.25833 10327 ft 336 kts 11°
2026-05-06 17:43 49.63538 9.26644 10185 ft 334 kts 12°
2026-05-06 17:43 49.65813 9.27465 10057 ft 334 kts 12°
2026-05-06 17:44 49.68080 9.28282 9922 ft 334 kts 11°
2026-05-06 17:44 49.70337 9.29093 9778 ft 332 kts 11°
2026-05-06 17:44 49.72588 9.29901 9808 ft 332 kts 11°
2026-05-06 17:44 49.74841 9.30710 9810 ft 333 kts 12°
2026-05-06 17:45 49.77096 9.31523 9810 ft 332 kts 11°
2026-05-06 17:45 49.79343 9.32335 9807 ft 333 kts 12°
2026-05-06 17:45 49.81609 9.33151 9806 ft 333 kts 10°
2026-05-06 17:45 49.83887 9.33283 9808 ft 328 kts 346°
2026-05-06 17:46 49.85947 9.31804 9805 ft 322 kts 318°
2026-05-06 17:46 49.87280 9.29113 9806 ft 316 kts 291°
2026-05-06 17:46 49.87963 9.25915 9812 ft 316 kts 285°
2026-05-06 17:46 49.88590 9.22622 9810 ft 315 kts 284°
2026-05-06 17:47 49.89206 9.19344 9811 ft 316 kts 284°
2026-05-06 17:47 49.89814 9.16112 9811 ft 316 kts 284°
2026-05-06 17:47 49.90435 9.12813 9560 ft 314 kts 284°
2026-05-06 17:47 49.91047 9.09571 9164 ft 311 kts 284°
2026-05-06 17:48 49.91653 9.06363 8770 ft 309 kts 284°
2026-05-06 17:48 49.92250 9.03202 8387 ft 306 kts 284°
2026-05-06 17:48 49.92847 9.00033 7996 ft 304 kts 284°
2026-05-06 17:48 49.93438 8.96895 7614 ft 302 kts 284°
2026-05-06 17:49 49.94025 8.93776 7231 ft 300 kts 284°
2026-05-06 17:49 49.94841 8.90811 6864 ft 301 kts 303°
2026-05-06 17:49 49.96387 8.88625 6502 ft 304 kts 328°
2026-05-06 17:49 49.98387 8.87678 6128 ft 303 kts 354°
2026-05-06 17:50 50.00450 8.88153 5745 ft 302 kts 20°
2026-05-06 17:50 50.02175 8.89957 5361 ft 299 kts 47°
2026-05-06 17:50 50.03218 8.92698 4982 ft 294 kts 71°
2026-05-06 17:50 50.03870 8.95685 4609 ft 290 kts 71°
2026-05-06 17:51 50.04540 8.98609 4224 ft 287 kts 70°
2026-05-06 17:51 50.05218 9.01495 3998 ft 278 kts 70°
2026-05-06 17:51 50.05895 9.04343 4006 ft 278 kts 69°
2026-05-06 17:51 50.06567 9.07161 4009 ft 278 kts 70°
2026-05-06 17:52 50.07238 9.09995 4007 ft 279 kts 70°
2026-05-06 17:52 50.07899 9.12801 4003 ft 270 kts 70°
2026-05-06 17:52 50.08523 9.15463 4005 ft 253 kts 70°
2026-05-06 17:52 50.09118 9.18005 3997 ft 248 kts 70°
2026-05-06 17:53 50.09708 9.20530 3999 ft 249 kts 70°
2026-05-06 17:53 50.10294 9.23058 4000 ft 247 kts 70°
2026-05-06 17:53 50.10878 9.25580 4000 ft 248 kts 70°
2026-05-06 17:53 50.11461 9.28103 3998 ft 248 kts 70°
2026-05-06 17:54 50.12045 9.30641 3999 ft 247 kts 70°
2026-05-06 17:54 50.12763 9.33065 4002 ft 247 kts 51°
2026-05-06 17:54 50.14090 9.34682 4003 ft 243 kts 18°
2026-05-06 17:54 50.15745 9.34987 4001 ft 245 kts 347°
2026-05-06 17:55 50.17296 9.33890 4004 ft 250 kts 316°
2026-05-06 17:55 50.18287 9.31690 4001 ft 251 kts 287°
2026-05-06 17:55 50.18614 9.29006 4001 ft 253 kts 275°
2026-05-06 17:55 50.18799 9.26267 3998 ft 253 kts 274°
2026-05-06 17:56 50.18956 9.23530 3998 ft 253 kts 270°
2026-05-06 17:56 50.18663 9.20893 3996 ft 241 kts 250°
2026-05-06 17:56 50.18107 9.18527 4001 ft 225 kts 250°
2026-05-06 17:56 50.17579 9.16290 4000 ft 213 kts 250°
2026-05-06 17:57 50.17086 9.14199 4003 ft 199 kts 250°
2026-05-06 17:57 50.16609 9.12174 4004 ft 199 kts 250°
2026-05-06 17:57 50.16150 9.10212 4013 ft 189 kts 250°
2026-05-06 17:57 50.15695 9.08260 4008 ft 189 kts 250°
2026-05-06 17:58 50.15248 9.06338 4008 ft 188 kts 250°
2026-05-06 17:58 50.14821 9.04503 4006 ft 173 kts 250°
2026-05-06 17:58 50.14413 9.02769 4013 ft 168 kts 250°
2026-05-06 17:58 50.14007 9.01056 4008 ft 169 kts 250°
2026-05-06 17:59 50.13603 8.99337 4007 ft 169 kts 250°
2026-05-06 17:59 50.13201 8.97623 4007 ft 168 kts 250°
2026-05-06 17:59 50.12802 8.95919 4006 ft 168 kts 250°
2026-05-06 17:59 50.12536 8.94783 4009 ft 169 kts 250°
2026-05-06 18:00 50.11996 8.92478 4006 ft 168 kts 250°
2026-05-06 18:00 50.11729 8.91343 4007 ft 168 kts 250°
2026-05-06 18:00 50.11328 8.89634 4008 ft 167 kts 250°
2026-05-06 18:00 50.10930 8.87940 4006 ft 167 kts 250°
2026-05-06 18:01 50.10531 8.86239 3981 ft 168 kts 250°
2026-05-06 18:01 50.10130 8.84534 3848 ft 168 kts 250°
2026-05-06 18:01 50.09728 8.82828 3636 ft 168 kts 251°
2026-05-06 18:01 50.09322 8.81105 3429 ft 167 kts 251°
2026-05-06 18:02 50.08924 8.79416 3205 ft 166 kts 251°
2026-05-06 18:02 50.08532 8.77756 2986 ft 168 kts 251°
2026-05-06 18:02 50.08123 8.76025 2752 ft 169 kts 251°
2026-05-06 18:02 50.07719 8.74316 2523 ft 168 kts 252°
2026-05-06 18:03 50.07315 8.72607 2299 ft 169 kts 252°
2026-05-06 18:03 50.06909 8.70893 2077 ft 169 kts 253°
2026-05-06 18:03 50.06524 8.69267 1853 ft 160 kts 254°
2026-05-06 18:03 50.06158 8.67732 1649 ft 145 kts 253°
2026-05-06 18:04 50.05824 8.66323 1452 ft 138 kts 253°
2026-05-06 18:04 50.05495 8.64931 1271 ft 138 kts 254°
2026-05-06 18:04 50.05165 8.63542 1068 ft 137 kts 253°
2026-05-06 18:04 50.04859 8.62257 899 ft 135 kts 253°
2026-05-06 18:05 50.04535 8.60895 714 ft 133 kts 255°
2026-05-06 18:05 50.04213 8.59540 542 ft 134 kts 253°
2026-05-06 18:05 50.03909 8.58248 387 ft 134 kts 253°
2026-05-06 18:05 50.03623 8.57047 353 ft 102 kts 249°
2026-05-06 18:06 50.03435 8.56265 353 ft 53 kts 249°
2026-05-06 18:06 50.03350 8.55905 348 ft 31 kts 250°
2026-05-06 18:06 50.03310 8.55623 343 ft 25 kts 268°
2026-05-06 18:06 50.03320 8.55443 352 ft 15 kts 279°
2026-05-06 18:07 50.03339 8.55270 343 ft 18 kts 279°
2026-05-06 18:07 50.03361 8.55068 345 ft 20 kts 280°
2026-05-06 18:07 50.03343 8.54846 338 ft 23 kts 250°
2026-05-06 18:07 50.03293 8.54639 338 ft 13 kts 249°
2026-05-06 18:08 50.03277 8.54534 335 ft 10 kts 280°
2026-05-06 18:08 50.03336 8.54468 338 ft 12 kts 339°
2026-05-06 18:08 50.03380 8.54442 337 ft 2 kts 339°
2026-05-06 18:08 50.03383 8.54440 337 ft 0 kts 339°
2026-05-06 18:12 50.03387 8.54438 340 ft 2 kts 339°
2026-05-06 18:12 50.03416 8.54421 349 ft 8 kts 339°
2026-05-06 18:12 50.03478 8.54385 347 ft 11 kts 340°
2026-05-06 18:12 50.03561 8.54337 345 ft 14 kts 340°
2026-05-06 18:13 50.03613 8.54309 343 ft 8 kts 343°
2026-05-06 18:13 50.03663 8.54345 351 ft 9 kts 58°
2026-05-06 18:13 50.03691 8.54455 346 ft 12 kts 69°
2026-05-06 18:13 50.03722 8.54583 348 ft 13 kts 70°
2026-05-06 18:14 50.03754 8.54718 354 ft 14 kts 69°
2026-05-06 18:14 50.03786 8.54852 351 ft 16 kts 69°
2026-05-06 18:14 50.03806 8.54937 353 ft 0 kts 70°
2026-05-06 18:14 50.03807 8.54939 353 ft 1 kts 70°
2026-05-06 18:15 50.03814 8.54969 351 ft 7 kts 70°
2026-05-06 18:15 50.03841 8.55082 351 ft 15 kts 69°
2026-05-06 18:15 50.03882 8.55254 357 ft 18 kts 70°
2026-05-06 18:15 50.03928 8.55446 357 ft 21 kts 69°
2026-05-06 18:16 50.03981 8.55669 357 ft 23 kts 70°
2026-05-06 18:16 50.04040 8.55917 354 ft 25 kts 70°
2026-05-06 18:16 50.04102 8.56175 359 ft 27 kts 69°
2026-05-06 18:16 50.04168 8.56448 356 ft 28 kts 69°
2026-05-06 18:17 50.04223 8.56680 359 ft 15 kts 70°
2026-05-06 18:17 50.04251 8.56782 363 ft 9 kts 51°
2026-05-06 18:17 50.04314 8.56817 360 ft 12 kts 12°
2026-05-06 18:17 50.04408 8.56845 363 ft 15 kts
2026-05-06 18:18 50.04520 8.56879 359 ft 12 kts 13°
2026-05-06 18:18 50.04604 8.56910 356 ft 12 kts 13°
2026-05-06 18:18 50.04656 8.56934 361 ft 9 kts 12°
2026-05-06 18:18 50.04694 8.56882 358 ft 5 kts 291°
2026-05-06 18:19 50.04703 8.56848 362 ft 1 kts 294°
2026-05-06 18:19 50.04705 8.56843 362 ft 0 kts 294°